Regional Weather Roundup
Issued by NWS

Home | Current Version | Previous Version | Text Only | Print | Product List | Glossary Off
Versions: 1 2 3 4 5 6 7 8 9 10 11 12 13 14 15 16 17 18 19 20 21 22 23 24 25 26 27 28 29 30 31 32 33 34 35 36 37 38 39 40 41 42 43 44 45 46 47 48 49 50

000
ASUS43 KLSX 200207
RWRMO

WEATHER SUMMARY FOR MISSOURI
NATIONAL WEATHER SERVICE SPRINGFIELD MO
900 PM CDT SAT MAY 19 2018

NOTE: "FAIR" INDICATES FEW OR NO CLOUDS BELOW 12,000 FEET WITH NO
       SIGNIFICANT WEATHER AND/OR OBSTRUCTIONS TO VISIBILITY.
       CURRENT SKY AND/OR WEATHER CONDITIONS ARE NOT AVAILABLE FOR
       CHILLICOTHE AND FARMINGTON.

MOZ001>031-035>038-043-044-053-054-200300-
...NORTHERN AND WESTERN MISSOURI...

CITY           SKY/WX    TMP DP  RH WIND       PRES   REMARKS
KANSAS CTY INT PTCLDY    71  66  84 SE8       29.90R
KANSAS C DTWN  CLOUDY    77  64  64 SE5       29.89R
LEE`S SUMMIT   CLOUDY    70  65  84 SE6       29.93R
ST JOSEPH      CLOUDY    75  59  57 NE12      29.91R
CHILLICOTHE      N/A     75  64  68 CALM      29.92R
KIRKSVILLE     CLOUDY    73  63  70 S9        29.94R

$$
MOZ066>068-077>081-088>096-101>105-200300-
...SOUTHWEST MISSOURI...

CITY           SKY/WX    TMP DP  RH WIND       PRES   REMARKS
SPRINGFIELD    CLOUDY    67  59  75 CALM      29.96F
JOPLIN         CLOUDY    70  61  73 SE6       29.93R
BRANSON        PTCLDY    75  59  57 N10G23    30.00R

$$
MOZ032>034-039>042-045>050-055>058-069>072-200300-
...CENTRAL MISSOURI...

CITY           SKY/WX    TMP DP  RH WIND       PRES   REMARKS
COLUMBIA       TSTM      65  61  87 SW15      30.06R FOG
JEFFERSON CITY LGT RAIN  67  59  75 N15       29.94F
ROLLA          LGT RAIN  63  58  83 NE9       30.01F
SEDALIA        CLOUDY    66  65  96 NE5       29.92R
WHITEMAN AFB   CLOUDY    65  62  91 CALM      29.87R
WARRENSBURG    CLOUDY    64  63  94 N8        29.93R
OSAGE BEACH    CLOUDY    64  61  90 VRB5      29.95F

$$
MOZ051-052-059>065-200300-
...EAST CENTRAL MISSOURI...

CITY           SKY/WX    TMP DP  RH WIND       PRES   REMARKS
ST LOUIS INTL  CLOUDY    70  63  78 CALM      29.96R THUNDER
SPIRIT OF STL  CLOUDY    68  64  87 W12G17    30.00R
ST CHARLES     CLOUDY    71  65  81 CALM      29.95R

$$
MOZ072>076-082>087-097>100-106>115-200300-
...SOUTH CENTRAL AND SOUTHEAST MISSOURI...

CITY           SKY/WX    TMP DP  RH WIND       PRES   REMARKS
CAPE GIRARDEAU FAIR      69  64  84 SW3       29.97R
FARMINGTON     PTCLDY    65  63  93 S7        29.99R
POPLAR BLUFF   FAIR      71  67  87 CALM      29.98F
WEST PLAINS    CLEAR     71  65  81 SE10      29.99F

$$




USA.gov is the U.S. government's official web portal to all federal, state and local government web resources and services.